Satellite: NOAA-18
Catalog number: 28654
Epoch time:      06180.26238437
Element set:     534
Inclination:      098.7882 deg
RA of node:       123.2804 deg
Eccentricity:    0.0014135
Arg of perigee:   183.6826 deg
Mean anomaly:     176.4276 deg
Mean motion:   14.10970565 rev/day
Decay rate:       2.92e-06 rev/day^2
Epoch rev:            5708
Checksum:              320

/EX
SB KEPS @ AMSAT  $ORB06180.M
Orbital Elements  06180.MISC

HR AMSAT ORBITAL ELEMENTS FOR MANNED AND MISCELLANEOUS SATELLITES
FROM WA5QGD FORT WORTH,TX June 29, 2006
Send SUBSCRIBE KEPS/UNSUBSCRIBE KEPS to majordomo@amsat.org only
BID: ORB06180.M
TO ALL RADIO AMATEURS BT

Satellite: HUBBLE
Catalog number: 20580
Epoch time:      06180.73710520
Element set:     643
Inclination:      028.4689 deg
RA of node:       328.0785 deg
Eccentricity:    0.0003422
Arg of perigee:   312.7562 deg
Mean anomaly:     047.2738 deg
Mean motion:   15.00057575 rev/day
Decay rate:       3.51e-06 rev/day^2
Epoch rev:           68698
Checksum:              296

Satellite: UARS
Catalog number: 21701
Epoch time:      06179.96967578
Element set:    0817
Inclination:      056.9786 deg
RA of node:       041.6483 deg
Eccentricity:    0.0099361
Arg of perigee:   229.5601 deg
Mean anomaly:     129.6767 deg
Mean motion:   15.43828510 rev/day
Decay rate:      1.711e-05 rev/day^2
Epoch rev:           81112
Checksum:              333

Satellite: PO-34
Catalog number: 25520
Epoch time:      06180.78431467
Element set:     500
Inclination:      028.4583 deg
RA of node:       306.8713 deg
Eccentricity:    0.0005409
Arg of perigee:   019.7458 deg
Mean anomaly:     340.3346 deg
Mean motion:   15.16737358 rev/day
Decay rate:       4.10e-06 rev/day^2
Epoch rev:           42396
Checksum:              299

Satellite: ISS
Catalog number: 25544
Epoch time:      06180.99097944
Element set:     201
Inclination:      051.6299 deg
RA of node:       121.5335 deg
Eccentricity:    0.0010624
Arg of perigee:   022.4334 deg
Mean anomaly:     068.2287 deg
Mean motion:   15.75941386 rev/day
Decay rate:     1.0656e-04 rev/day^2
Epoch rev:           43518
Checksum:              300

Satellite: OO-38
Catalog number: 26063
Epoch time:      06179.72190130
Element set:    0654
Inclination:      100.1889 deg
RA of node:       112.8386 deg
Eccentricity:    0.0037374
Arg of perigee:   074.8404 deg
Mean anomaly:     285.6905 deg
Mean motion:   14.35769270 rev/day
Decay rate:       -3.3e-07 rev/day^2
Epoch rev:           33633
Checksum:              311

Satellite: NO-45
Catalog number: 26932
Epoch time:      06179.90896777
Element set:    0350
Inclination:      067.0518 deg
RA of node:       337.1937 deg
Eccentricity:    0.0008743
Arg of perigee:   253.4428 deg
Mean anomaly:     106.5709 deg
Mean motion:   14.29528410 rev/day
Decay rate:       -5.9e-07 rev/day^2
Epoch rev:           24764
Checksum:              338

Satellite: UWE-1
Catalog number: 28892
Epoch time:      06179.71543666
Element set:    0490
Inclination:      098.1643 deg
RA of node:       077.7467 deg
Eccentricity:    0.0017992
Arg of perigee:   132.1578 deg
Mean anomaly:     228.1143 deg
Mean motion:   14.59366399 rev/day
Decay rate:        2.8e-07 rev/day^2
Epoch rev:           03565
Checksum:              344

Satellite: CO-58
Catalog number: 28895
Epoch time:      06180.66603392
Element set:     471
Inclination:      098.1640 deg
RA of node:       078.7664 deg
Eccentricity:    0.0018450
Arg of perigee:   129.3711 deg
Mean anomaly:     230.9139 deg
Mean motion:   14.59419658 rev/day
Decay rate:        6.6e-07 rev/day^2
Epoch rev:            3567
Checksum:              338

Satellite: NCUBE2
Catalog number: 28897
Epoch time:      06179.68223855
Element set:    0087
Inclination:      098.1629 deg
RA of node:       077.7845 deg
Eccentricity:    0.0017778
Arg of perigee:   135.4949 deg
Mean anomaly:     224.7702 deg
Mean motion:   14.59574523 rev/day
Decay rate:       1.01e-06 rev/day^2
Epoch rev:           02780
Checksum:              348

/EX




----
Via the keps mailing list at AMSAT.ORG courtesy of AMSAT-NA.
To unsubscribe, send "unsubscribe keps" to Majordomo@amsat.org

--- ViaMAIL!/WC v1.60d
 * Origin: Chowdanet (401-724-4410) telnet://chowdanet.com  (1:323/120)